Location: Grandview
(34.8900°N, 117.1058°W)
Time: 10:05:09
(UTC-07:00)

OTV 5 (USA 277) - Pass Details

Date: 12 October 2017
Orbit: 404 x 417 km, 43.0° (Epoch: 07 September)

Event Time Altitude Azimuth Distance (km) Brightness Sun altitude
Rises 19:44:06 0° 276° (W) 2,349 ? -18.7°
Reaches altitude 10° 19:46:27 10° 290° (WNW) 1,487 ? -19.1°
Maximum altitude 19:49:17 25° 348° (NNW) 893 ? -19.7°
Enters shadow 19:49:55 23° 7° (N) 933 ? -19.9°
